Location: Hermaringen
(48.5952°N, 10.2585°E)
Time: 22:03:29
(UTC+00:00)

Altair - Pass Details

Date: 18 February 2026
Orbit: 1502 x 1682 km, 47.2° (Epoch: 10 March)

Event Time Altitude Azimuth Distance (km) Brightness Sun altitude
Exits shadow 05:04:21 11° 243° (WSW) 3,626 8.9 -13.4°
Maximum altitude 05:13:23 72° 161° (SSE) 1,608 7.7 -11.9°
Drops below altitude 10° 05:22:52 10° 80° (E) 3,784 11.0 -10.3°
Sets 05:26:01 0° 79° (E) 4,794 11.7 -9.8°
